Location: Le Domaine
(47.0333°N, 76.5361°W)
Time: 00:19:50
(UTC-05:00)

S-56A Canister/Altair - Pass Details

Date: 20 November 2019
Orbit: 633 x 2500 km, 38.9° (Epoch: 08 December)

Event Time Altitude Azimuth Distance (km) Brightness Sun altitude
Rises 13:38:46 0° 184° (S) 5,853 13.2 19.0°
Reaches altitude 10° 13:46:56 10° 155° (SSE) 4,413 12.0 18.4°
Maximum altitude 13:49:50 11° 141° (SE) 4,123 11.6 18.1°
Drops below altitude 10° 13:52:32 10° 126° (SE) 4,025 11.3 17.9°
Sets 13:58:40 0° 95° (E) 4,513 11.2 17.4°
